Location: Asheville, NC
(35.6000°N, 82.5500°W)
Time: 01:26:27
(UTC-05:00)

RS-15 - Pass Details

Date: 07 January 2018
Orbit: 1886 x 2158 km, 64.8° (Epoch: 20 January)

Event Time Altitude Azimuth Distance (km) Brightness Sun altitude
Rises 18:34:13 0° 330° (NNW) 5,595 10.6 -12.3°
Reaches altitude 10° 18:38:16 10° 340° (NNW) 4,555 10.0 -13.1°
Maximum altitude 18:48:45 35° 43° (NE) 2,891 8.5 -15.1°
Enters shadow 18:56:46 16° 100° (E) 3,889 9.1 -16.6°
